sat.trackr.live / text

‹ back to catalog

STARLINK-3087

NORAD 49175 · 2021-082AX

PAYLOAD ACTIVE UNKNOWN

§ Identity

Operator
Country
US
Launch date
2021-09-14
Launch site
AFWTR
Launch vehicle
Mass (kg)
RCS (m²)

Purposes: comms

External: N2YO · Heavens-Above · Gunter

§ Orbital elements

Epoch: 2026-05-25T03:42:27.197280Z

Period
96.16 min
Inclination
70.0003°
Eccentricity
0.0002755
Mean motion
14.97522281 rev/d
Perigee alt
572.6 km
Apogee alt
576.5 km
Semi-major
6,952.7 km
B*
3.0305e-5
RAAN
82.8276°
Arg perigee
268.8919°
Mean anomaly
91.1924°
Rev number
25,789

§ Raw data

STARLINK-30871 49175U 21082AX  26145.15448145  .00000262  00000+0  30305-4 0  99932 49175  70.0003  82.8276 0002755 268.8919  91.1924 14.97522281257891

JSON: /api/v1/satellites/49175 · /tle

For live sub-satellite position, see the globe view (requires WebGL).

§ Visibility from observer

Set your observer location to see the next 7 days of passes ≥ 10°. The values pass through the URL so the page stays shareable.

No JS? Fill the form by hand. The geolocation button needs JavaScript.